Time,TemperatureF,DewpointF,PressureIn,WindDirection,WindDirectionDegrees,WindSpeedMPH,WindSpeedGustMPH,Humidity,HourlyPrecipIn,Conditions,Clouds,dailyrainin,SoftwareType,DateUTC
2013-03-14 00:02:00,26.0,26.0,-100.00,SE,141,1.0,-999.0,99,-99.99,,,-99.99,,2013-03-14 05:02:00,
2013-03-14 00:12:00,26.0,26.0,-100.00,North,0,0.0,-999.0,99,-99.99,,,-99.99,,2013-03-14 05:12:00,
2013-03-14 00:22:00,26.0,26.0,-100.00,North,0,0.0,-999.0,99,-99.99,,,-99.99,,2013-03-14 05:22:00,
2013-03-14 00:33:00,26.0,26.0,-100.00,SSE,161,1.0,-999.0,99,-99.99,,,-99.99,,2013-03-14 05:33:00,
2013-03-14 00:42:00,26.0,26.0,-100.00,North,0,0.0,-999.0,99,-99.99,,,-99.99,,2013-03-14 05:42:00,
2013-03-14 00:52:00,27.0,26.0,-100.00,North,0,0.0,-999.0,99,-99.99,,,-99.99,,2013-03-14 05:52:00,
2013-03-14 01:02:00,27.0,26.0,-100.00,North,0,0.0,-999.0,99,-99.99,,,-99.99,,2013-03-14 06:02:00,
2013-03-14 01:12:00,27.0,26.0,-100.00,North,0,0.0,-999.0,98,-99.99,,,-99.99,,2013-03-14 06:12:00,
2013-03-14 01:22:00,27.0,26.0,-100.00,North,0,0.0,-999.0,97,-99.99,,,-99.99,,2013-03-14 06:22:00,
2013-03-14 01:32:00,27.0,26.0,-100.00,North,0,0.0,-999.0,98,-99.99,,,-99.99,,2013-03-14 06:32:00,
2013-03-14 01:42:00,27.0,26.0,-100.00,North,0,0.0,-999.0,98,-99.99,,,-99.99,,2013-03-14 06:42:00,
2013-03-14 01:52:00,27.0,27.0,-100.00,North,0,0.0,-999.0,99,-99.99,,,-99.99,,2013-03-14 06:52:00,
2013-03-14 02:02:00,27.0,27.0,-100.00,North,0,0.0,-999.0,98,-99.99,,,-99.99,,2013-03-14 07:02:00,
2013-03-14 02:12:00,28.0,27.0,-100.00,North,0,0.0,-999.0,98,-99.99,,,-99.99,,2013-03-14 07:12:00,
2013-03-14 02:22:00,28.0,27.0,-100.00,North,0,0.0,-999.0,96,-99.99,,,-99.99,,2013-03-14 07:22:00,
2013-03-14 02:32:00,28.0,27.0,-100.00,North,0,0.0,-999.0,97,-99.99,,,-99.99,,2013-03-14 07:32:00,
2013-03-14 02:42:00,28.0,27.0,-100.00,North,0,0.0,-999.0,97,-99.99,,,-99.99,,2013-03-14 07:42:00,
2013-03-14 02:52:00,28.0,27.0,-100.00,North,0,0.0,-999.0,96,-99.99,,,-99.99,,2013-03-14 07:52:00,
2013-03-14 03:02:00,28.0,27.0,-100.00,South,172,0.0,-999.0,97,-99.99,,,-99.99,,2013-03-14 08:02:00,
2013-03-14 03:12:00,28.0,28.0,-100.00,North,0,0.0,-999.0,98,-99.99,,,-99.99,,2013-03-14 08:12:00,
2013-03-14 03:22:00,29.0,28.0,-100.00,North,0,0.0,-999.0,98,-99.99,,,-99.99,,2013-03-14 08:22:00,
2013-03-14 03:32:00,29.0,28.0,-100.00,North,0,0.0,-999.0,98,-99.99,,,-99.99,,2013-03-14 08:32:00,
2013-03-14 03:42:00,30.0,28.0,-100.00,South,172,0.0,-999.0,95,-99.99,,,-99.99,,2013-03-14 08:42:00,
2013-03-14 03:52:00,30.0,29.0,-100.00,North,0,0.0,-999.0,94,-99.99,,,-99.99,,2013-03-14 08:52:00,
2013-03-14 04:01:00,30.0,29.0,-100.00,North,0,0.0,-999.0,96,-99.99,,,-99.99,,2013-03-14 09:01:00,
2013-03-14 04:12:00,31.0,29.0,-100.00,North,0,0.0,-999.0,93,-99.99,,,-99.99,,2013-03-14 09:12:00,
2013-03-14 04:22:00,30.0,30.0,-100.00,North,0,0.0,-999.0,98,-99.99,,,-99.99,,2013-03-14 09:22:00,
2013-03-14 04:32:00,30.0,30.0,-100.00,North,0,0.0,-999.0,99,-99.99,,,-99.99,,2013-03-14 09:32:00,
2013-03-14 04:42:00,31.0,30.0,-100.00,North,0,0.0,-999.0,97,-99.99,,,-99.99,,2013-03-14 09:42:00,
2013-03-14 04:52:00,31.0,29.0,-100.00,North,0,0.0,-999.0,95,-99.99,,,-99.99,,2013-03-14 09:52:00,
2013-03-14 05:02:00,30.0,29.0,-100.00,North,0,0.0,-999.0,97,-99.99,,,-99.99,,2013-03-14 10:02:00,
2013-03-14 05:12:00,30.0,29.0,-100.00,North,0,0.0,-999.0,97,-99.99,,,-99.99,,2013-03-14 10:12:00,
2013-03-14 05:22:00,30.0,30.0,-100.00,North,0,0.0,-999.0,98,-99.99,,,-99.99,,2013-03-14 10:22:00,
2013-03-14 05:32:00,30.0,-99.9,-100.00,North,0,0.0,-999.0,-999,-99.99,,,-99.99,,2013-03-14 10:32:00,
2013-03-14 05:42:00,30.0,-99.9,-100.00,North,0,0.0,-999.0,-999,-99.99,,,-99.99,,2013-03-14 10:42:00,
2013-03-14 05:52:00,30.0,30.0,-100.00,North,0,0.0,-999.0,99,-99.99,,,-99.99,,2013-03-14 10:52:00,
2013-03-14 06:02:00,30.0,-99.9,-100.00,North,0,0.0,-999.0,-999,-99.99,,,-99.99,,2013-03-14 11:02:00,
2013-03-14 06:12:00,30.0,-99.9,-100.00,North,0,0.0,-999.0,-999,-99.99,,,-99.99,,2013-03-14 11:12:00,
2013-03-14 06:22:00,30.0,-99.9,-100.00,North,0,0.0,-999.0,-999,-99.99,,,-99.99,,2013-03-14 11:22:00,
2013-03-14 06:33:00,30.0,-99.9,-100.00,North,0,0.0,-999.0,-999,-99.99,,,-99.99,,2013-03-14 11:33:00,
2013-03-14 06:42:00,30.0,-99.9,-100.00,North,0,0.0,-999.0,-999,-99.99,,,-99.99,,2013-03-14 11:42:00,
2013-03-14 06:53:00,30.0,-99.9,-100.00,North,0,0.0,-999.0,-999,-99.99,,,-99.99,,2013-03-14 11:53:00,
2013-03-14 07:02:00,30.0,-99.9,-100.00,North,0,0.0,-999.0,-999,-99.99,,,-99.99,,2013-03-14 12:02:00,
2013-03-14 07:12:00,29.0,-99.9,-100.00,North,0,0.0,-999.0,-999,-99.99,,,-99.99,,2013-03-14 12:12:00,
2013-03-14 07:22:00,29.0,-99.9,-100.00,North,0,0.0,-999.0,-999,-99.99,,,-99.99,,2013-03-14 12:22:00,
2013-03-14 07:33:00,28.0,28.0,-100.00,North,0,0.0,-999.0,99,-99.99,,,-99.99,,2013-03-14 12:33:00,
2013-03-14 07:43:00,27.0,-99.9,-100.00,North,0,0.0,-999.0,-999,-99.99,,,-99.99,,2013-03-14 12:43:00,
2013-03-14 07:52:00,27.0,-99.9,-100.00,North,0,0.0,-999.0,-999,-99.99,,,-99.99,,2013-03-14 12:52:00,
2013-03-14 08:03:00,27.0,-99.9,-100.00,North,0,0.0,-999.0,-999,-99.99,,,-99.99,,2013-03-14 13:03:00,
2013-03-14 08:13:00,27.0,-99.9,-100.00,North,0,0.0,-999.0,-999,-99.99,,,-99.99,,2013-03-14 13:13:00,
2013-03-14 08:22:00,27.0,27.0,-100.00,North,0,0.0,-999.0,99,-99.99,,,-99.99,,2013-03-14 13:22:00,
2013-03-14 08:33:00,27.0,-99.9,-100.00,North,0,0.0,-999.0,-999,-99.99,,,-99.99,,2013-03-14 13:33:00,
2013-03-14 08:43:00,28.0,-99.9,-100.00,North,0,0.0,-999.0,-999,-99.99,,,-99.99,,2013-03-14 13:43:00,
2013-03-14 08:53:00,29.0,-99.9,-100.00,North,0,0.0,-999.0,-999,-99.99,,,-99.99,,2013-03-14 13:53:00,
2013-03-14 09:02:00,30.0,30.0,-100.00,North,0,0.0,-999.0,99,-99.99,,,-99.99,,2013-03-14 14:02:00,
2013-03-14 09:12:00,32.0,31.0,-100.00,North,0,0.0,-999.0,98,-99.99,,,-99.99,,2013-03-14 14:12:00,
2013-03-14 09:22:00,32.0,32.0,-100.00,North,0,0.0,-999.0,98,-99.99,,,-99.99,,2013-03-14 14:22:00,
2013-03-14 09:32:00,33.0,32.0,-100.00,North,0,0.0,-999.0,97,-99.99,,,-99.99,,2013-03-14 14:32:00,
2013-03-14 09:42:00,33.0,32.0,-100.00,North,0,0.0,-999.0,97,-99.99,,,-99.99,,2013-03-14 14:42:00,
2013-03-14 09:52:00,34.0,33.0,-100.00,North,0,0.0,-999.0,94,-99.99,,,-99.99,,2013-03-14 14:52:00,
2013-03-14 10:02:00,34.0,32.0,-100.00,North,0,0.0,-999.0,93,-99.99,,,-99.99,,2013-03-14 15:02:00,
2013-03-14 10:12:00,35.0,32.0,-100.00,North,0,0.0,-999.0,92,-99.99,,,-99.99,,2013-03-14 15:12:00,
2013-03-14 10:22:00,36.0,34.0,-100.00,North,0,0.0,-999.0,93,-99.99,,,-99.99,,2013-03-14 15:22:00,
2013-03-14 10:33:00,36.0,34.0,-100.00,North,0,0.0,-999.0,93,-99.99,,,-99.99,,2013-03-14 15:33:00,
2013-03-14 10:43:00,36.0,34.0,-100.00,North,0,0.0,-999.0,93,-99.99,,,-99.99,,2013-03-14 15:43:00,
2013-03-14 10:52:00,36.0,34.0,-100.00,North,0,0.0,-999.0,93,-99.99,,,-99.99,,2013-03-14 15:52:00,
2013-03-14 12:12:00,42.0,42.0,-100.00,NW,304,0.0,-999.0,99,-99.99,,,-99.99,,2013-03-14 17:12:00,
2013-03-14 12:23:00,42.0,41.0,-100.00,North,0,0.0,-999.0,98,-99.99,,,-99.99,,2013-03-14 17:23:00,
2013-03-14 12:33:00,43.0,-99.9,-100.00,North,0,0.0,-999.0,-999,-99.99,,,-99.99,,2013-03-14 17:33:00,
2013-03-14 12:42:00,43.0,42.0,-100.00,North,0,0.0,-999.0,99,-99.99,,,-99.99,,2013-03-14 17:42:00,
2013-03-14 12:53:00,44.0,-99.9,-100.00,North,0,0.0,-999.0,-999,-99.99,,,-99.99,,2013-03-14 17:53:00,
2013-03-14 13:03:00,44.0,44.0,-100.00,North,0,0.0,-999.0,99,-99.99,,,-99.99,,2013-03-14 18:03:00,
2013-03-14 13:12:00,45.0,45.0,-100.00,North,0,0.0,-999.0,99,-99.99,,,-99.99,,2013-03-14 18:12:00,
2013-03-14 13:22:00,46.0,45.0,-100.00,North,0,0.0,-999.0,98,-99.99,,,-99.99,,2013-03-14 18:22:00,
2013-03-14 13:33:00,46.0,46.0,-100.00,WNW,295,0.0,-999.0,98,-99.99,,,-99.99,,2013-03-14 18:33:00,
2013-03-14 13:43:00,47.0,47.0,-100.00,North,0,0.0,-999.0,99,-99.99,,,-99.99,,2013-03-14 18:43:00,
2013-03-14 13:53:00,49.0,-99.9,-100.00,North,0,0.0,-999.0,-999,-99.99,,,-99.99,,2013-03-14 18:53:00,
2013-03-14 14:03:00,49.0,-99.9,-100.00,North,0,0.0,-999.0,-999,-99.99,,,-99.99,,2013-03-14 19:03:00,
2013-03-14 14:12:00,50.0,-99.9,-100.00,North,0,0.0,-999.0,-999,-99.99,,,-99.99,,2013-03-14 19:12:00,
2013-03-14 14:23:00,51.0,50.0,-100.00,North,0,0.0,-999.0,98,-99.99,,,-99.99,,2013-03-14 19:23:00,
2013-03-14 14:32:00,50.0,-99.9,-100.00,North,0,0.0,-999.0,-999,-99.99,,,-99.99,,2013-03-14 19:32:00,
2013-03-14 14:43:00,50.0,-99.9,-100.00,North,0,0.0,-999.0,-999,-99.99,,,-99.99,,2013-03-14 19:43:00,
2013-03-14 14:53:00,50.0,-99.9,-100.00,North,0,0.0,-999.0,-999,-99.99,,,-99.99,,2013-03-14 19:53:00,
2013-03-14 15:32:00,54.0,51.0,-100.00,North,0,0.0,-999.0,90,-99.99,,,-99.99,,2013-03-14 20:32:00,
2013-03-14 15:42:00,54.0,50.0,-100.00,North,0,0.0,-999.0,89,-99.99,,,-99.99,,2013-03-14 20:42:00,
2013-03-14 15:52:00,54.0,51.0,-100.00,North,0,0.0,-999.0,87,-99.99,,,-99.99,,2013-03-14 20:52:00,
2013-03-14 16:02:00,55.0,51.0,-100.00,North,0,0.0,-999.0,88,-99.99,,,-99.99,,2013-03-14 21:02:00,
2013-03-14 16:12:00,55.0,51.0,-100.00,North,0,0.0,-999.0,86,-99.99,,,-99.99,,2013-03-14 21:12:00,
2013-03-14 16:22:00,55.0,52.0,-100.00,West,280,0.0,-999.0,88,-99.99,,,-99.99,,2013-03-14 21:22:00,
2013-03-14 16:32:00,55.0,51.0,-100.00,North,0,0.0,-999.0,85,-99.99,,,-99.99,,2013-03-14 21:32:00,
2013-03-14 16:43:00,56.0,52.0,-100.00,North,0,0.0,-999.0,88,-99.99,,,-99.99,,2013-03-14 21:43:00,
2013-03-14 16:53:00,56.0,51.0,-100.00,North,0,0.0,-999.0,84,-99.99,,,-99.99,,2013-03-14 21:53:00,
2013-03-14 17:03:00,56.0,51.0,-100.00,North,0,0.0,-999.0,82,-99.99,,,-99.99,,2013-03-14 22:03:00,
2013-03-14 17:13:00,56.0,50.0,-100.00,North,0,0.0,-999.0,80,-99.99,,,-99.99,,2013-03-14 22:13:00,
2013-03-14 17:23:00,55.0,49.0,-100.00,North,0,0.0,-999.0,78,-99.99,,,-99.99,,2013-03-14 22:23:00,
2013-03-14 17:33:00,56.0,50.0,-100.00,North,0,0.0,-999.0,79,-99.99,,,-99.99,,2013-03-14 22:33:00,
2013-03-14 17:42:00,56.0,52.0,-100.00,North,0,0.0,-999.0,84,-99.99,,,-99.99,,2013-03-14 22:42:00,
2013-03-14 17:52:00,57.0,51.0,-100.00,North,0,0.0,-999.0,81,-99.99,,,-99.99,,2013-03-14 22:52:00,
2013-03-14 18:02:00,57.0,51.0,-100.00,North,0,0.0,-999.0,81,-99.99,,,-99.99,,2013-03-14 23:02:00,
2013-03-14 18:12:00,56.0,50.0,-100.00,North,0,0.0,-999.0,80,-99.99,,,-99.99,,2013-03-14 23:12:00,
2013-03-14 18:22:00,55.0,49.0,-100.00,North,0,0.0,-999.0,81,-99.99,,,-99.99,,2013-03-14 23:22:00,
2013-03-14 18:33:00,55.0,50.0,-100.00,North,0,0.0,-999.0,84,-99.99,,,-99.99,,2013-03-14 23:33:00,
2013-03-14 18:42:00,55.0,50.0,-100.00,North,0,0.0,-999.0,83,-99.99,,,-99.99,,2013-03-14 23:42:00,
2013-03-14 18:53:00,55.0,52.0,-100.00,North,0,0.0,-999.0,91,-99.99,,,-99.99,,2013-03-14 23:53:00,
2013-03-14 19:02:00,55.0,52.0,-100.00,North,0,0.0,-999.0,91,-99.99,,,-99.99,,2013-03-15 00:02:00,
2013-03-14 19:12:00,53.0,52.0,-100.00,North,0,0.0,-999.0,95,-99.99,,,-99.99,,2013-03-15 00:12:00,
2013-03-14 19:23:00,53.0,52.0,-100.00,North,0,0.0,-999.0,98,-99.99,,,-99.99,,2013-03-15 00:23:00,
2013-03-14 19:33:00,51.0,-99.9,-100.00,North,0,0.0,-999.0,-999,-99.99,,,-99.99,,2013-03-15 00:33:00,
2013-03-14 19:43:00,51.0,-99.9,-100.00,North,0,0.0,-999.0,-999,-99.99,,,-99.99,,2013-03-15 00:43:00,
2013-03-14 19:53:00,49.0,-99.9,-100.00,North,0,0.0,-999.0,-999,-99.99,,,-99.99,,2013-03-15 00:53:00,
2013-03-14 20:03:00,49.0,-99.9,-100.00,North,-999,0.0,-999.0,-999,-99.99,,,-99.99,,2013-03-15 01:03:00,
2013-03-14 20:12:00,48.0,48.0,-100.00,North,0,0.0,-999.0,99,-99.99,,,-99.99,,2013-03-15 01:12:00,
2013-03-14 20:23:00,48.0,-99.9,-100.00,North,0,0.0,-999.0,-999,-99.99,,,-99.99,,2013-03-15 01:23:00,
2013-03-14 20:33:00,47.0,-99.9,-100.00,North,0,0.0,-999.0,-999,-99.99,,,-99.99,,2013-03-15 01:33:00,
2013-03-14 20:43:00,46.0,-99.9,-100.00,North,0,0.0,-999.0,-999,-99.99,,,-99.99,,2013-03-15 01:43:00,
2013-03-14 20:52:00,45.0,-99.9,-100.00,North,0,0.0,-999.0,-999,-99.99,,,-99.99,,2013-03-15 01:52:00,
2013-03-14 21:03:00,45.0,-99.9,-100.00,North,0,0.0,-999.0,-999,-99.99,,,-99.99,,2013-03-15 02:03:00,
2013-03-14 21:12:00,44.0,-99.9,-100.00,North,0,0.0,-999.0,-999,-99.99,,,-99.99,,2013-03-15 02:12:00,
2013-03-14 21:22:00,40.0,-99.9,-100.00,North,0,0.0,-999.0,-999,-99.99,,,-99.99,,2013-03-15 02:22:00,
2013-03-14 21:33:00,38.0,-99.9,-100.00,North,0,0.0,-999.0,-999,-99.99,,,-99.99,,2013-03-15 02:33:00,
2013-03-14 21:42:00,38.0,-99.9,-100.00,North,0,0.0,-999.0,-999,-99.99,,,-99.99,,2013-03-15 02:42:00,
2013-03-14 21:52:00,39.0,-99.9,-100.00,North,0,0.0,-999.0,-999,-99.99,,,-99.99,,2013-03-15 02:52:00,
2013-03-14 22:02:00,38.0,-99.9,-100.00,North,0,0.0,-999.0,-999,-99.99,,,-99.99,,2013-03-15 03:02:00,
2013-03-14 22:13:00,40.0,-99.9,-100.00,North,0,0.0,-999.0,-999,-99.99,,,-99.99,,2013-03-15 03:13:00,
2013-03-14 22:22:00,38.0,-99.9,-100.00,North,0,0.0,-999.0,-999,-99.99,,,-99.99,,2013-03-15 03:22:00,
2013-03-14 22:33:00,37.0,-99.9,-100.00,North,0,0.0,-999.0,-999,-99.99,,,-99.99,,2013-03-15 03:33:00,
2013-03-14 22:43:00,36.0,-99.9,-100.00,North,0,0.0,-999.0,-999,-99.99,,,-99.99,,2013-03-15 03:43:00,
2013-03-14 22:53:00,37.0,-99.9,-100.00,North,0,0.0,-999.0,-999,-99.99,,,-99.99,,2013-03-15 03:53:00,
2013-03-14 23:03:00,37.0,-99.9,-100.00,North,0,0.0,-999.0,-999,-99.99,,,-99.99,,2013-03-15 04:03:00,
2013-03-14 23:13:00,37.0,-99.9,-100.00,North,0,0.0,-999.0,-999,-99.99,,,-99.99,,2013-03-15 04:13:00,
2013-03-14 23:23:00,36.0,-99.9,-100.00,North,0,0.0,-999.0,-999,-99.99,,,-99.99,,2013-03-15 04:23:00,
2013-03-14 23:33:00,36.0,-99.9,-100.00,North,0,0.0,-999.0,-999,-99.99,,,-99.99,,2013-03-15 04:33:00,
2013-03-14 23:43:00,36.0,-99.9,-100.00,North,0,0.0,-999.0,-999,-99.99,,,-99.99,,2013-03-15 04:43:00,
2013-03-14 23:53:00,37.0,-99.9,-100.00,North,0,0.0,-999.0,-999,-99.99,,,-99.99,,2013-03-15 04:53:00,